This demonstration page uses our WeatherBlox Daily Observations layout. Learn more.

Left ArrowRight Arrow

39.01783, -85.05884

Hourly Observations for March 4, 2020

Temp ( °F °C ) Dew Point ( °F °C ) Humidity (%) Winds ( mph kmh ) Pressure ( in mb ) Visibility ( mi km ) Precip ( " mm )
12:52 am 00:52 Clear 40 4.4 26 -3.3 58 58 W 5 7 29.89 1012 10 16 0.00 0.00
1:52 am 01:52 Clear 34 1.1 26 -3.3 73 73 SSW 6 9 29.91 1013 10 16 0.00 0.00
2:52 am 02:52 Clear 33 0.6 28 -2.2 82 82 SSW 7 11 29.92 1013 10 16 0.00 0.00
3:52 am 03:52 Mostly Clear 37 2.8 26 -3.3 65 65 SSW 8 13 29.92 1013 10 16 0.00 0.00
4:52 am 04:52 Mostly Clear 38 3.3 27 -2.8 65 65 SSW 8 13 29.91 1013 10 16 0.00 0.00
5:52 am 05:52 Partly Cloudy 34 1.1 27 -2.8 76 76 S 8 13 29.92 1013 10 16 0.00 0.00
6:52 am 06:52 Mostly Clear 36 2.2 27 -2.8 70 70 S 9 15 29.91 1013 10 16 0.00 0.00
7:52 am 07:52 Partly Cloudy 40 4.4 28 -2.2 63 63 S 13 20 29.89 1012 10 16 0.00 0.00
8:52 am 08:52 Partly Cloudy 46 7.8 28 -2.2 50 50 S 12 19 29.89 1012 10 16 0.00 0.00
9:52 am 09:52 Mostly Cloudy 49 9.4 30 -1.1 48 48 SSW 10 17 29.90 1013 10 16 0.00 0.00
10:52 am 10:52 Mostly Cloudy 54 12.2 29 -1.7 38 38 SSW 16 26 29.87 1012 10 16 0.00 0.00
11:52 am 11:52 Mostly Cloudy 57 13.9 29 -1.7 34 34 SW 12 19 29.87 1011 10 16 0.00 0.00
12:52 pm 12:52 Mostly Cloudy 59 15 28 -2.2 31 31 WSW 14 22 29.85 1011 10 16 0.00 0.00
1:52 pm 13:52 Mostly Cloudy 60 15.6 29 -1.7 31 31 WSW 18 30 29.84 1011 10 16 0.00 0.00
2:52 pm 14:52 Mostly Cloudy 61 16.1 31 -0.6 32 32 WNW 21 33 29.86 1011 10 16 0.00 0.00
3:52 pm 15:52 Partly Cloudy 58 14.4 33 0.6 39 39 WNW 17 28 29.93 1013 10 16 0.00 0.00
4:52 pm 16:52 Mostly Cloudy 56 13.3 31 -0.6 39 39 WNW 15 24 29.96 1014 10 16 0.00 0.00
5:52 pm 17:52 Mostly Cloudy 54 12.2 29 -1.7 38 38 WNW 10 17 29.98 1015 10 16 0.00 0.00
6:52 pm 18:52 Mostly Cloudy 50 10 27 -2.8 41 41 WNW 12 19 29.99 1016 10 16 0.00 0.00
7:52 pm 19:52 Partly Cloudy 47 8.3 25 -3.9 42 42 NNW 12 19 30.04 1017 10 16 0.00 0.00
8:52 pm 20:52 Partly Cloudy 44 6.7 26 -3.3 49 49 N 9 15 30.04 1017 10 16 0.00 0.00
9:52 pm 21:52 Mostly Clear 44 6.7 28 -2.2 53 53 N 13 20 30.06 1018 10 16 0.00 0.00
10:52 pm 22:52 Clear 41 5 28 -2.2 60 60 N 10 17 30.08 1019 10 16 0.00 0.00
11:52 pm 23:52 Mostly Clear 41 5 27 -2.8 57 57 NNE 8 13 30.11 1020 10 16 0.00 0.00

Powered by AerisWeather